This is the latest recevied weather packets stored in our database for station/object K0WOI. If no packets are shown the sender has not sent any weather packets the latest 1 day(s).
| Time | Temp. | Humidity | Pressure | Rain* | Wind** | Luminosity | Snow |
|---|---|---|---|---|---|---|---|
| 1778020256 | 14.44° C | 35% | 1009.8 hPa | 0 mm | 2.68 m/s, 1° | 164 W/m² | - |
| 1778019952 | 14.44° C | 32% | 1010 hPa | 0 mm | 3.13 m/s, 327° | 172 W/m² | - |
| 1778019648 | 14.44° C | 32% | 1010 hPa | 0 mm | 1.34 m/s, 316° | 177 W/m² | - |
| 1778019346 | 14.44° C | 32% | 1009.7 hPa | 0 mm | 2.24 m/s, 302° | 160 W/m² | - |
| 1778019042 | 13.89° C | 31% | 1009.9 hPa | 0 mm | 1.34 m/s, 315° | 172 W/m² | - |
| 1778018739 | 13.89° C | 32% | 1010 hPa | 0 mm | 3.13 m/s, 328° | 185 W/m² | - |
| 1778018437 | 14.44° C | 34% | 1010 hPa | 0 mm | 1.34 m/s, 309° | 199 W/m² | - |
| 1778018135 | 13.89° C | 32% | 1009.9 hPa | 0 mm | 2.24 m/s, 343° | 207 W/m² | - |
| 1778017832 | 13.89° C | 33% | 1009.9 hPa | 0 mm | 0.89 m/s, 308° | 204 W/m² | - |
| 1778017530 | 13.89° C | 34% | 1010 hPa | 0 mm | 0.89 m/s, 304° | 188 W/m² | - |
| 1778017227 | 13.89° C | 32% | 1010.2 hPa | 0 mm | 1.79 m/s, 322° | 194 W/m² | - |
| 1778016925 | 13.89° C | 35% | 1010.2 hPa | 0 mm | 2.68 m/s, 291° | 193 W/m² | - |
| 1778016621 | 14.44° C | 31% | 1010.2 hPa | 0 mm | 1.79 m/s, 301° | 201 W/m² | - |
| 1778016317 | 14.44° C | 30% | 1010.2 hPa | 0 mm | 0.89 m/s, 324° | 218 W/m² | - |
| 1778016015 | 14.44° C | 31% | 1010.6 hPa | 0 mm | 1.79 m/s, 326° | 234 W/m² | - |
| 1778015712 | 14.44° C | 30% | 1010.3 hPa | 0 mm | 2.24 m/s, 293° | 233 W/m² | - |
| 1778015408 | 15° C | 30% | 1010.2 hPa | 0 mm | 3.13 m/s, 341° | 250 W/m² | - |
| 1778015105 | 14.44° C | 34% | 1010.1 hPa | 0 mm | 0.45 m/s, 296° | 271 W/m² | - |
| 1778014802 | 14.44° C | 31% | 1010.3 hPa | 0 mm | 2.24 m/s, 345° | 281 W/m² | - |
| 1778014500 | 15° C | 32% | 1010.2 hPa | 0 mm | 2.24 m/s, 329° | 242 W/m² | - |
| 1778014196 | 15° C | 31% | 1010.5 hPa | 0 mm | 3.58 m/s, 342° | 249 W/m² | - |
| 1778013895 | 15° C | 29% | 1010.1 hPa | 0 mm | 1.79 m/s, 324° | 246 W/m² | - |
| 1778013592 | 15° C | 31% | 1010.2 hPa | 0 mm | 3.13 m/s, 307° | 298 W/m² | - |
| 1778013288 | 15° C | 29% | 1010.4 hPa | 0 mm | 2.68 m/s, 298° | 319 W/m² | - |
| 1778012984 | 15.56° C | 30% | 1010.3 hPa | 0 mm | 1.79 m/s, 314° | 325 W/m² | - |
* Rain latest hour (hover to see other rain measurements)
** Current wind speed in m/s (hover to see current wind gust speed)